Itaituba Airport, Brazil

1:42 AM -03 on April 23, 2018 (GMT -0300)
Itaituba

Weather History for SBIH - January, 2014

Change the Weather History Date:

Saturday, January 4, 2014

  Actual Average Record
Temperature  
Mean Temperature 83 °F -  
Max Temperature 91 °F 88 °F 96 °F (2016)
Min Temperature 75 °F 72 °F 73 °F (1997)
Cooling Degree Days 18    
Growing Degree Days 33 (Base 50)    
Moisture  
Dew Point 75 °F    
Average Humidity 75    
Maximum Humidity 94    
Minimum Humidity 52    
Precipitation  
Precipitation 0.00 in 0.29 in - ()
Sea Level Pressure  
Sea Level Pressure 29.83 in    
Wind  
Wind Speed 3 mph ()    
Max Wind Speed 12 mph    
Max Gust Speed -    
Visibility 5.8 miles    
Events      
Averages and records for this station are not official NWS values.
T = Trace of Precipitation, MM = Missing Value Source: Averaged Metar Reports

Daily Weather History Graph

Daily Weather History Graph

Search for Another Location

Airport or City:

Astronomy

Jan. 04, 2014 Rise Set
Actual Time 5:38 AM -04 5:59 PM -04
Civil Twilight 5:15 AM -04 6:22 PM -04
Nautical Twilight 4:49 AM -04 6:48 PM -04
Astronomical Twilight 4:22 AM -04 7:15 PM -04
Moon 8:37 AM -04 (1/4) 9:07 PM -04 (1/4)
Length of Visible Light 13h 06m
Length of Day
12h 21m
Waxing Crescent, 15% of the Moon is Illuminated
Jan 4
Waxing Crescent
Jan 7
First Quarter
Jan 16
Full
Jan 24
Last Quarter
Jan 30
New

Hourly Weather History & Observations

Time (-04) Temp. Heat Index Dew Point Humidity Pressure Visibility Wind Dir Wind Speed Gust Speed Precip Events Conditions
5:15 AM 75.2 °F - 73.4 °F 94% 29.83 in 3.7 mi Calm Calm - N/A   Partly Cloudy
6:00 AM 75.2 °F - 73.4 °F 94% 29.83 in 3.7 mi Calm Calm - N/A   Unknown
7:00 AM 77.0 °F - 75.2 °F 94% 29.86 in - Calm Calm - N/A   Clear
8:00 AM 80.6 °F 88.1 °F 78.8 °F 94% 29.89 in 6.2 mi Calm Calm - N/A   Partly Cloudy
9:00 AM 86.0 °F 96.9 °F 77.0 °F 74% 29.89 in 6.2 mi ESE 11.5 mph - N/A   Scattered Clouds
10:00 AM 89.6 °F 102.2 °F 77.0 °F 66% 29.92 in 6.2 mi ESE 9.2 mph - N/A   Scattered Clouds
11:00 AM 89.6 °F 102.2 °F 77.0 °F 66% 29.89 in 6.2 mi ESE 6.9 mph - N/A   Scattered Clouds
12:00 PM 91.4 °F 105.1 °F 77.0 °F 63% 29.89 in 6.2 mi ESE 6.9 mph - N/A   Scattered Clouds
1:00 PM 91.4 °F 100.1 °F 73.4 °F 55% 29.83 in 6.2 mi ESE 6.9 mph - N/A   Scattered Clouds
2:00 PM 91.4 °F 98.4 °F 71.6 °F 52% 29.80 in 6.2 mi ESE 9.2 mph - N/A   Partly Cloudy
3:00 PM 91.4 °F 100.1 °F 73.4 °F 55% 29.77 in 6.2 mi ESE 8.1 mph - N/A   Partly Cloudy
4:00 PM 89.6 °F 102.2 °F 77.0 °F 66% 29.77 in 6.2 mi ESE 6.9 mph - N/A   Scattered Clouds
5:00 PM 87.8 °F 99.7 °F 77.0 °F 70% 29.77 in 6.2 mi ESE 4.6 mph - N/A   Partly Cloudy
6:00 PM 86.0 °F 95.1 °F 75.2 °F 70% 29.77 in - East 3.5 mph - N/A   Clear
7:00 PM 84.2 °F 90.9 °F 73.4 °F 70% 29.77 in - East 4.6 mph - N/A   Clear
8:00 PM 82.4 °F 88.2 °F 73.4 °F 74% 29.80 in - East 3.5 mph - N/A   Clear
9:00 PM 78.8 °F - 73.4 °F 83% 29.83 in - Calm Calm - N/A   Clear
10:00 PM 78.8 °F - 73.4 °F 83% 29.83 in - Calm Calm - N/A   Clear
11:00 PM 77.0 °F - 75.2 °F 94% 29.83 in - Calm Calm - N/A   Clear